DW8300 Weather Reports


time (UTC)temp
C
wind
direction
speed
KPH
gust
KPH
rain 1hr
cm
rain 24hr
cm
rain mn
cm
humidity
%
barometer
mb
20260506002049 23 222 0.0 12.9 0.00 0.00 0.00 35 1008.4
20260506001531 23 228 0.0 4.8 0.00 0.00 0.00 36 1008.4
20260506001012 23 79 0.0 4.8 0.00 0.00 0.00 35 1008.2
20260506000509 23 207 0.0 4.8 0.00 0.00 0.00 34 1008.3
20260505235957 23 218 0.0 1.6 0.00 0.00 0.00 35 1008.2
20260505234849 23 225 0.0 6.4 0.00 0.00 0.00 35 1008.2
20260505234345 24 216 0.0 6.4 0.00 0.00 0.00 34 1008.2
20260505233850 24 178 0.0 6.4 0.00 0.00 0.00 35 1008.1
20260505233332 24 196 0.0 1.6 0.00 0.00 0.00 35 1008.2
20260505232817 24 197 0.0 1.6 0.00 0.00 0.00 34 1008.1
20260505232322 24 244 0.0 3.2 0.00 0.00 0.00 35 1008.2
20260505231810 25 228 0.0 3.2 0.00 0.00 0.00 34 1008.2
20260505231304 25 211 0.0 0.0 0.00 0.00 0.00 34 1008.1
20260505230749 25 210 0.0 12.9 0.00 0.00 0.00 34 1008.0
20260505230236 25 151 0.0 8.0 0.00 0.00 0.00 33 1008.1
20260505225723 25 173 0.0 12.9 0.00 0.00 0.00 33 1008.0
20260505225229 25 221 0.0 12.9 0.00 0.00 0.00 32 1008.0
20260505224110 25 222 0.0 12.9 0.00 0.00 0.00 33 1008.1
20260505222329 25 142 0.0 11.3 0.00 0.00 0.00 34 1008.3
20260505221819 25 221 0.0 11.3 0.00 0.00 0.00 33 1008.2
20260505221323 25 217 0.0 9.7 0.00 0.00 0.00 33 1008.2
20260505220831 25 213 1.6 14.5 0.00 0.00 0.00 32 1008.2
20260505220313 25 228 0.0 14.5 0.00 0.00 0.00 33 1008.3
20260505215820 26 207 0.0 14.5 0.00 0.00 0.00 32 1008.2
20260505215330 26 181 0.0 14.5 0.00 0.00 0.00 34 1008.2
20260505214831 25 129 0.0 1.6 0.00 0.00 0.00 35 1008.2
20260505214323 25 236 0.0 3.2 0.00 0.00 0.00 34 1008.2
20260505213812 25 244 0.0 1.6 0.00 0.00 0.00 35 1008.2
20260505213315 25 217 0.0 14.5 0.00 0.00 0.00 35 1008.1
20260505212759 25 209 0.0 17.7 0.00 0.00 0.00 34 1008.1
20260505212308 26 158 1.6 17.7 0.00 0.00 0.00 35 1008.2
20260505211814 26 222 1.6 17.7 0.00 0.00 0.00 34 1008.1
20260505211321 26 234 1.6 17.7 0.00 0.00 0.00 35 1008.1
20260505210802 26 252 1.6 12.9 0.00 0.00 0.00 36 1008.0
20260505205643 26 201 1.6 20.9 0.00 0.00 0.00 35 1008.0
20260505205126 26 169 1.6 20.9 0.00 0.00 0.00 34 1007.9
20260505204624 26 208 1.6 20.9 0.00 0.00 0.00 36 1008.0
20260505204105 27 188 1.6 20.9 0.00 0.00 0.00 36 1008.0
20260505203558 27 248 0.0 16.1 0.00 0.00 0.00 36 1007.9
20260505203100 27 213 0.0 11.3 0.00 0.00 0.00 35 1007.8
20260505201930 27 196 1.6 14.5 0.00 0.00 0.00 35 1007.9
20260505201420 27 160 0.0 14.5 0.00 0.00 0.00 35 1008.0
20260505200913 26 236 0.0 14.5 0.00 0.00 0.00 37 1007.9
20260505200412 26 140 1.6 14.5 0.00 0.00 0.00 37 1007.9
20260505195909 26 212 0.0 14.5 0.00 0.00 0.00 37 1008.0
20260505195401 26 205 0.0 9.7 0.00 0.00 0.00 35 1008.1
20260505194854 26 194 0.0 9.7 0.00 0.00 0.00 37 1008.1
20260505194349 26 190 1.6 11.3 0.00 0.00 0.00 37 1008.1
20260505193848 27 202 0.0 11.3 0.00 0.00 0.00 37 1008.3
20260505193354 27 207 0.0 11.3 0.00 0.00 0.00 37 1008.2
20260505192846 26 143 1.6 11.3 0.00 0.00 0.00 36 1008.3
20260505192332 26 234 1.6 22.5 0.00 0.00 0.00 37 1008.4
20260505191831 27 218 0.0 22.5 0.00 0.00 0.00 38 1008.5
20260505191311 26 157 0.0 22.5 0.00 0.00 0.00 39 1008.5
20260505190123 26 122 0.0 11.3 0.00 0.00 0.00 37 1008.9
20260505185633 26 214 0.0 11.3 0.00 0.00 0.00 38 1008.9
20260505183858 26 227 0.0 12.9 0.00 0.00 0.00 38 1009.1
20260505183344 26 230 1.6 12.9 0.00 0.00 0.00 38 1009.1
20260505182846 26 232 0.0 8.0 0.00 0.00 0.00 38 1009.3
20260505181702 26 210 1.6 16.1 0.00 0.00 0.00 39 1009.4
20260505181202 26 178 1.6 16.1 0.00 0.00 0.00 38 1009.5
20260505180703 26 234 1.6 16.1 0.00 0.00 0.00 37 1009.5
20260505180206 26 146 0.0 12.9 0.00 0.00 0.00 40 1009.5
20260505175716 26 213 0.0 17.7 0.00 0.00 0.00 40 1009.6
20260505174614 26 243 0.0 17.7 0.00 0.00 0.00 39 1009.8
20260505174112 26 227 1.6 17.7 0.00 0.00 0.00 41 1009.8
20260505173618 26 163 1.6 12.9 0.00 0.00 0.00 38 1009.8
20260505173106 26 202 1.6 12.9 0.00 0.00 0.00 42 1009.8
20260505172609 26 232 0.0 11.3 0.00 0.00 0.00 39 1009.9
20260505172100 26 218 0.0 8.0 0.00 0.00 0.00 41 1009.9
20260505170928 25 207 0.0 0.0 0.00 0.00 0.00 42 1010.0
20260505170427 25 236 0.0 3.2 0.00 0.00 0.00 40 1010.0
20260505165922 25 219 0.0 4.8 0.00 0.00 0.00 39 1010.2
20260505165411 25 221 0.0 12.9 0.00 0.00 0.00 41 1010.3
20260505164913 25 249 1.6 14.5 0.00 0.00 0.00 38 1010.4
20260505163738 25 226 3.2 14.5 0.00 0.00 0.00 38 1010.6
20260505163229 25 244 1.6 22.5 0.00 0.00 0.00 41 1010.7
20260505162106 25 233 3.2 22.5 0.00 0.00 0.00 41 1010.8
20260505161605 25 221 3.2 22.5 0.00 0.00 0.00 43 1011.0
20260505161055 25 209 1.6 17.7 0.00 0.00 0.00 40 1010.9
20260505160602 25 237 1.6 17.7 0.00 0.00 0.00 42 1011.1
20260505153341 24 218 3.2 19.3 0.00 0.00 0.00 42 1011.2
20260505152847 24 238 3.2 19.3 0.00 0.00 0.00 41 1011.3
20260505152329 24 227 1.6 17.7 0.00 0.00 0.00 41 1011.3
20260505151831 24 219 4.8 17.7 0.00 0.00 0.00 45 1011.2
20260505151315 24 215 3.2 17.7 0.00 0.00 0.00 44 1011.2
20260505150823 23 245 0.0 12.9 0.00 0.00 0.00 46 1011.2
20260505150317 23 247 0.0 12.9 0.00 0.00 0.00 46 1011.2
20260505140454 20 232 0.0 1.6 0.00 0.00 0.00 60 1011.3
20260505124233 15 219 0.0 0.0 0.00 0.00 0.00 73 1012.0
20260505123728 15 219 0.0 0.0 0.00 0.00 0.00 75 1012.1
20260505123218 14 219 0.0 0.0 0.00 0.00 0.00 75 1012.2
20260505122722 14 218 0.0 0.0 0.00 0.00 0.00 75 1012.2
20260505121552 13 218 0.0 0.0 0.00 0.00 0.00 76 1012.1
20260505121050 13 219 0.0 0.0 0.00 0.00 0.00 75 1012.1
20260505120543 13 219 0.0 3.2 0.00 0.00 0.00 76 1012.1
20260505120052 13 221 0.0 3.2 0.00 0.00 0.00 77 1012.3
20260505115550 13 173 0.0 0.0 0.00 0.00 0.00 77 1012.2
20260505115030 13 141 0.0 0.0 0.00 0.00 0.00 78 1012.1
20260505114519 13 141 0.0 0.0 0.00 0.00 0.00 79 1012.1
20260505112702 12 142 0.0 0.0 0.00 0.00 0.00 80 1011.8
20260505112157 12 121 0.0 0.0 0.00 0.00 0.00 79 1011.7
20260505111707 12 121 0.0 0.0 0.00 0.00 0.00 79 1011.7
20260505101530 12 121 0.0 0.0 0.00 0.00 0.00 79 1011.0
20260505101024 12 121 0.0 0.0 0.00 0.00 0.00 79 1011.0
20260505100505 12 121 0.0 0.0 0.00 0.00 0.00 78 1010.9
20260505095958 12 121 0.0 0.0 0.00 0.00 0.00 78 1010.9
20260505095443 12 121 0.0 0.0 0.00 0.00 0.00 77 1011.0
20260505094334 12 121 0.0 0.0 0.00 0.00 0.00 77 1011.0
20260505093819 12 121 0.0 0.0 0.00 0.00 0.00 77 1010.9
20260505093302 12 121 0.0 0.0 0.00 0.00 0.00 77 1010.8
20260505092139 13 121 0.0 0.0 0.00 0.00 0.00 76 1010.9
20260505091621 13 121 0.0 0.0 0.00 0.00 0.00 76 1010.8
20260505091113 13 121 0.0 0.0 0.00 0.00 0.00 76 1010.9
20260505090604 13 121 0.0 0.0 0.00 0.00 0.00 77 1010.9
20260505090112 12 177 0.0 0.0 0.00 0.00 0.00 77 1010.8
20260505085617 12 177 0.0 0.0 0.00 0.00 0.00 77 1010.7
20260505085126 13 177 0.0 0.0 0.00 0.00 0.00 76 1010.8
20260505084015 13 187 0.0 0.0 0.00 0.00 0.00 76 1010.7
20260505083510 13 187 0.0 0.0 0.00 0.00 0.00 75 1010.6
20260505083009 13 187 0.0 0.0 0.00 0.00 0.00 75 1010.6
20260505082459 13 187 0.0 0.0 0.00 0.00 0.00 76 1010.5
20260505081955 13 187 0.0 0.0 0.00 0.00 0.00 76 1010.4
20260505081438 13 187 0.0 0.0 0.00 0.00 0.00 76 1010.4
20260505080934 13 187 0.0 0.0 0.00 0.00 0.00 76 1010.4
20260505080433 13 187 0.0 0.0 0.00 0.00 0.00 76 1010.5
20260505075917 13 187 0.0 0.0 0.00 0.00 0.00 76 1010.4
20260505075418 13 187 0.0 0.0 0.00 0.00 0.00 76 1010.5
20260505074920 13 187 0.0 0.0 0.00 0.00 0.00 76 1010.5
20260505074424 13 187 0.0 0.0 0.00 0.00 0.00 76 1010.4
20260505073917 13 187 0.0 0.0 0.00 0.00 0.00 76 1010.4
20260505072755 13 187 0.0 0.0 0.00 0.00 0.00 76 1010.4
20260505072256 13 187 0.0 0.0 0.00 0.00 0.00 76 1010.3
20260505071134 13 187 0.0 0.0 0.00 0.00 0.00 75 1010.2
20260505070626 13 187 0.0 0.0 0.00 0.00 0.00 74 1010.3
20260505064858 13 187 0.0 0.0 0.00 0.00 0.00 74 1010.3
20260505064405 13 187 0.0 0.0 0.00 0.00 0.00 74 1010.3
20260505063853 13 187 0.0 0.0 0.00 0.00 0.00 74 1010.3
20260505062729 13 187 0.0 0.0 0.00 0.00 0.00 73 1010.3
20260505062209 13 187 0.0 0.0 0.00 0.00 0.00 73 1010.5
20260505061038 13 187 0.0 0.0 0.00 0.00 0.00 73 1010.5
20260505060540 13 187 0.0 0.0 0.00 0.00 0.00 72 1010.5
20260505060046 13 187 0.0 0.0 0.00 0.00 0.00 72 1010.5
20260505055554 13 187 0.0 0.0 0.00 0.00 0.00 72 1010.4
20260505055047 14 187 0.0 0.0 0.00 0.00 0.00 72 1010.5
20260505054548 14 187 0.0 0.0 0.00 0.00 0.00 71 1010.4
20260505054048 14 187 0.0 0.0 0.00 0.00 0.00 71 1010.4
20260505052935 14 187 0.0 0.0 0.00 0.00 0.00 70 1010.4
20260505052433 15 187 0.0 0.0 0.00 0.00 0.00 69 1010.4
20260505051927 15 187 0.0 0.0 0.00 0.00 0.00 69 1010.4
20260505051425 15 188 0.0 0.0 0.00 0.00 0.00 68 1010.5
20260505050929 15 187 0.0 0.0 0.00 0.00 0.00 68 1010.5
20260505041704 16 193 0.0 0.0 0.00 0.00 0.00 65 1010.6
20260505041211 16 193 0.0 0.0 0.00 0.00 0.00 65 1010.6
20260505040651 16 193 0.0 0.0 0.00 0.00 0.00 65 1010.6
20260505035525 16 194 0.0 0.0 0.00 0.00 0.00 64 1010.4
20260505035009 16 194 0.0 0.0 0.00 0.00 0.00 64 1010.5
20260505034506 16 194 0.0 0.0 0.00 0.00 0.00 63 1010.4
20260505033354 16 194 0.0 0.0 0.00 0.00 0.00 62 1010.3
20260505032240 16 194 0.0 0.0 0.00 0.00 0.00 61 1010.3
20260505031733 16 193 0.0 0.0 0.00 0.00 0.00 61 1010.4
20260505030600 16 194 0.0 0.0 0.00 0.00 0.00 61 1010.5
20260505030041 17 194 0.0 0.0 0.00 0.00 0.00 61 1010.5
20260505025550 17 194 0.0 0.0 0.00 0.00 0.00 60 1010.4
20260505025045 17 194 0.0 0.0 0.00 0.00 0.00 60 1010.5
20260505023921 17 231 0.0 0.0 0.00 0.00 0.00 58 1010.6
20260505023426 17 231 0.0 0.0 0.00 0.00 0.00 58 1010.5
20260505022314 17 231 0.0 0.0 0.00 0.00 0.00 57 1010.4
20260505021804 17 231 0.0 0.0 0.00 0.00 0.00 57 1010.4
20260505021259 18 231 0.0 0.0 0.00 0.00 0.00 56 1010.4
20260505020135 18 231 0.0 0.0 0.00 0.00 0.00 55 1010.4
20260505015627 18 231 0.0 1.6 0.00 0.00 0.00 54 1010.4
20260505014511 18 232 0.0 0.0 0.00 0.00 0.00 53 1010.2
20260505014015 19 233 0.0 0.0 0.00 0.00 0.00 53 1010.2
20260505012844 19 232 0.0 0.0 0.00 0.00 0.00 52 1010.0
20260505012325 19 231 0.0 0.0 0.00 0.00 0.00 51 1010.0
20260505011825 19 229 0.0 1.6 0.00 0.00 0.00 51 1009.9
20260505011316 20 210 0.0 0.0 0.00 0.00 0.00 50 1010.0
20260505010805 20 158 0.0 0.0 0.00 0.00 0.00 50 1009.9
20260505010247 20 157 0.0 0.0 0.00 0.00 0.00 49 1009.7
20260505005750 20 144 0.0 0.0 0.00 0.00 0.00 49 1009.6
20260505005254 20 209 0.0 1.6 0.00 0.00 0.00 49 1009.6
20260505003502 20 221 0.0 0.0 0.00 0.00 0.00 47 1009.4
20260505003009 20 240 0.0 0.0 0.00 0.00 0.00 47 1009.5